Regional Weather Roundup
Issued by NWS Raleigh/Durham, NC

Home | Current Version | Previous Version | Text Only | Print | Product List | Glossary On
Versions: 1 2 3 4 5 6 7 8 9 10 11 12 13 14 15 16 17 18 19 20 21 22 23 24 25 26 27 28 29 30 31 32 33 34 35 36 37 38 39 40 41 42 43 44 45 46 47 48 49 50
000
ASUS42 KRAH 211710
RWRRAH
NORTH CAROLINA WEATHER ROUNDUP
NATIONAL WEATHER SERVICE RALEIGH NC
100 PM EDT THU AUG 21 2014

NOTE: "FAIR" INDICATES FEW OR NO CLOUDS BELOW 12,000 FEET WITH NO
SIGNIFICANT WEATHER AND/OR OBSTRUCTIONS TO VISIBILITY.

NCZ001-053-055-056-065-067-211800-
WESTERN NORTH CAROLINA

CITY           SKY/WX    TMP DP  RH WIND       PRES   REMARKS
ASHEVILLE      MOSUNNY   84  65  52 N16G24    30.22R
JEFFERSON      CLOUDY    75  60  59 W12       30.27S
MORGANTON      MOSUNNY   86  66  50 CALM      30.19F
HICKORY        MOSUNNY   87  66  49 VRB3      30.15R
RUTHERFORDTON  MOSUNNY   87  66  50 CALM      30.15S
MOUNT AIRY     PTSUNNY   84  73  69 SW5       30.16F
BOONE          MOSUNNY   76  61  59 NW8G16    30.27S
$$

NCZ021-022-025-041-071-084-088-211800-
CENTRAL NORTH CAROLINA

CITY           SKY/WX    TMP DP  RH WIND       PRES   REMARKS
CHARLOTTE      MOSUNNY   89  64  43 N7        30.13S
GREENSBORO     CLOUDY    85  66  53 VRB3      30.12S
WINSTON-SALEM  PTSUNNY   84  64  50 N3        30.14S
RALEIGH-DURHAM MOSUNNY   88  68  51 NE3       30.08S
FORT BRAGG     MOSUNNY   91  70  51 NW6       30.06F HX  96
FAYETTEVILLE   MOSUNNY   93  69  45 NW6       30.05F HX  98
BURLINGTON     MOSUNNY   90  67  46 NW9       30.09S
LAURINBURG     SUNNY     92  67  43 N8        30.07F HX  95
$$

NCZ011-015-027-028-043-044-047-080-103-211800-
NORTHEASTERN NORTH CAROLINA

CITY           SKY/WX    TMP DP  RH WIND       PRES   REMARKS
ROCKY MT-WILSO SUNNY     89  72  56 W5        30.05S HX  96
GREENVILLE     MOSUNNY   88  77  70 N5        30.06S HX 100
WASHINGTON     MOSUNNY   88  75  65 CALM      30.04F HX  98
ELIZABETH CITY MOSUNNY   86  74  67 VRB3      30.04S
MANTEO         PTSUNNY   84  73  70 S7        30.04S
CAPE HATTERAS  PTSUNNY   79  74  84 NW5       30.06F
$$

NCZ078-087-090-091-093-098-101-211800-
SOUTHEASTERN NORTH CAROLINA

CITY           SKY/WX    TMP DP  RH WIND       PRES   REMARKS
LUMBERTON      MOSUNNY   93  71  48 NE6       30.05F HX 100
GOLDSBORO      MOSUNNY   89  77  68 W5        30.03S HX 100
KINSTON        MOSUNNY   90  72  55 NW3       30.05S HX  96
KENANSVILLE    MOSUNNY   89  71  55 NW3       30.06R HX  95
NEW BERN       SUNNY     93  75  55 W3        30.04F HX 104
CHERRY POINT   PTSUNNY   90  75  61 NW7       30.04F HX 100
BEAUFORT       MOSUNNY   87  79  76 S12       30.04F HX 101
JACKSONVILLE   PTSUNNY   91  74  57 SW8       30.03F HX 100
WILMINGTON     MOSUNNY   93  73  52 W8        30.04F HX 102
$$



USA.gov is the U.S. government's official web portal to all federal, state and local government web resources and services.